Tracking 30692 objects as of 16-Jun-2025
HD Live streaming from Space Station
objects crossing your sky now

STARLINK-6117

Track STARLINK-6117 now!
10-day predictions
STARLINK-6117 is classified as:


NORAD ID: 56130
Int'l Code: 2023-046AQ
Perigee: 565.4 km
Apogee: 567.1 km
Inclination: 43.0 °
Period: 95.8 minutes
Semi major axis: 6937 km
RCS: Unknown
Launch date: March 29, 2023
Source: United States (US)
Launch site: AIR FORCE EASTERN TEST RANGE (AFETR)
Your satellite tracking list
Your tracking list is empty




NASA's NSSDC Master Catalog

Two Line Element Set (TLE):
1 56130U 23046AQ  25167.27047237 -.00000024  00000-0  13285-4 0  9993
2 56130  43.0032 153.7880 0001187 268.1633  91.9073 15.02532447122138
Source of the keplerian elements: AFSPC